Time,TemperatureF,DewpointF,PressureIn,WindDirection,WindDirectionDegrees,WindSpeedMPH,WindSpeedGustMPH,Humidity,HourlyPrecipIn,Conditions,Clouds,dailyrainin,SoftwareType,DateUTC
2013-05-29 00:04:00,72.1,32.4,29.65,North,0,0.0,2.0,23,0.00,,,0.00,meteobridge,2013-05-28 21:04:00,
2013-05-29 00:10:00,72.1,31.3,29.65,SSE,158,0.9,2.2,22,0.00,,,0.00,meteobridge,2013-05-28 21:10:00,
2013-05-29 00:15:00,72.3,31.5,29.65,WNW,292,0.9,2.7,22,0.00,,,0.00,meteobridge,2013-05-28 21:15:00,
2013-05-29 00:20:00,72.3,31.5,29.65,North,0,3.6,3.6,22,0.00,,,0.00,meteobridge,2013-05-28 21:20:00,
2013-05-29 00:25:00,72.3,31.5,29.65,NNE,22,2.7,2.7,22,0.00,,,0.00,meteobridge,2013-05-28 21:25:00,
2013-05-29 00:31:00,72.3,31.5,29.65,NNE,22,2.7,2.7,22,0.00,,,0.00,meteobridge,2013-05-28 21:31:00,
2013-05-29 00:36:00,72.1,31.3,29.65,NNE,22,0.9,3.4,22,0.00,,,0.00,meteobridge,2013-05-28 21:36:00,
2013-05-29 00:41:00,72.1,30.0,29.65,North,0,3.6,3.6,21,0.00,,,0.00,meteobridge,2013-05-28 21:41:00,
2013-05-29 00:46:00,72.1,30.0,29.65,NNW,338,1.1,4.0,21,0.00,,,0.00,meteobridge,2013-05-28 21:46:00,
2013-05-29 00:51:00,72.5,28.0,29.65,North,0,3.8,3.8,19,0.00,,,0.00,meteobridge,2013-05-28 21:51:00,
2013-05-29 00:56:00,72.7,28.0,29.65,NNW,338,3.1,3.8,19,0.00,,,0.00,meteobridge,2013-05-28 21:56:00,
2013-05-29 01:01:00,72.7,28.0,29.65,NNW,338,1.1,3.1,19,0.00,,,0.00,meteobridge,2013-05-28 22:01:00,
2013-05-29 01:06:00,72.9,28.2,29.62,SW,225,1.1,2.5,19,0.00,,,0.00,meteobridge,2013-05-28 22:06:00,
2013-05-29 01:11:00,72.7,28.0,29.62,SE,135,1.6,2.9,19,0.00,,,0.00,meteobridge,2013-05-28 22:11:00,
2013-05-29 01:16:00,72.7,28.0,29.62,SSE,158,0.0,0.9,19,0.00,,,0.00,meteobridge,2013-05-28 22:16:00,
2013-05-29 01:21:00,72.5,28.0,29.62,NNE,22,1.6,2.0,19,0.00,,,0.00,meteobridge,2013-05-28 22:21:00,
2013-05-29 01:26:00,72.3,27.9,29.62,NNW,338,0.9,1.6,19,0.00,,,0.00,meteobridge,2013-05-28 22:26:00,
2013-05-29 01:31:00,72.1,27.7,29.62,NW,315,3.1,3.1,19,0.00,,,0.00,meteobridge,2013-05-28 22:31:00,
2013-05-29 01:36:00,72.1,27.7,29.62,NNW,338,2.0,3.1,19,0.00,,,0.00,meteobridge,2013-05-28 22:36:00,
2013-05-29 01:41:00,72.1,27.7,29.62,North,0,2.9,3.6,19,0.00,,,0.00,meteobridge,2013-05-28 22:41:00,
2013-05-29 01:48:00,72.0,27.5,29.62,NNE,22,0.0,0.0,19,0.00,,,0.00,meteobridge,2013-05-28 22:48:00,
2013-05-29 01:53:00,71.8,27.3,29.62,ENE,68,1.3,2.2,19,0.00,,,0.00,meteobridge,2013-05-28 22:53:00,
2013-05-29 01:58:00,71.8,27.3,29.62,NE,45,1.6,2.9,19,0.00,,,0.00,meteobridge,2013-05-28 22:58:00,
2013-05-29 02:03:00,71.8,27.3,29.62,NE,45,2.2,2.5,19,0.00,,,0.00,meteobridge,2013-05-28 23:03:00,
2013-05-29 02:08:00,71.8,27.3,29.62,NNW,338,3.1,3.1,19,0.00,,,0.00,meteobridge,2013-05-28 23:08:00,
2013-05-29 02:13:00,72.0,27.5,29.62,SE,135,0.9,2.5,19,0.00,,,0.00,meteobridge,2013-05-28 23:13:00,
2013-05-29 02:18:00,72.0,27.5,29.62,ENE,68,0.0,0.0,19,0.00,,,0.00,meteobridge,2013-05-28 23:18:00,
2013-05-29 02:23:00,72.0,27.5,29.59,SW,225,1.3,1.3,19,0.00,,,0.00,meteobridge,2013-05-28 23:23:00,
2013-05-29 02:28:00,72.1,27.7,29.59,NNW,338,1.6,2.7,19,0.00,,,0.00,meteobridge,2013-05-28 23:28:00,
2013-05-29 02:33:00,72.1,23.5,29.59,SSE,158,2.2,3.1,16,0.00,,,0.00,meteobridge,2013-05-28 23:33:00,
2013-05-29 02:38:00,72.0,23.4,29.56,South,180,2.5,2.9,16,0.00,,,0.00,meteobridge,2013-05-28 23:38:00,
2013-05-29 02:43:00,72.0,23.4,29.56,South,180,2.7,2.7,16,0.00,,,0.00,meteobridge,2013-05-28 23:43:00,
2013-05-29 02:48:00,71.8,23.2,29.56,NNE,22,2.2,2.2,16,0.00,,,0.00,meteobridge,2013-05-28 23:48:00,
2013-05-29 02:53:00,71.6,23.2,29.59,NNW,338,2.9,4.3,16,0.00,,,0.00,meteobridge,2013-05-28 23:53:00,
2013-05-29 02:58:00,72.5,23.9,29.59,NNE,22,2.5,7.6,16,0.00,,,0.00,meteobridge,2013-05-28 23:58:00,
2013-05-29 03:03:00,72.7,23.9,29.59,South,180,1.3,1.3,16,0.00,,,0.00,meteobridge,2013-05-29 00:03:00,
2013-05-29 03:08:00,72.5,23.9,29.59,SE,135,1.1,1.6,16,0.00,,,0.00,meteobridge,2013-05-29 00:08:00,
2013-05-29 03:13:00,72.5,23.9,29.59,WNW,292,3.4,4.3,16,0.00,,,0.00,meteobridge,2013-05-29 00:13:00,
2013-05-29 03:18:00,72.9,24.1,29.59,SSE,158,2.9,5.8,16,0.00,,,0.00,meteobridge,2013-05-29 00:18:00,
2013-05-29 03:24:00,73.0,24.3,29.59,NNW,338,2.9,4.0,16,0.00,,,0.00,meteobridge,2013-05-29 00:24:00,
2013-05-29 03:29:00,72.7,23.9,29.59,SW,225,2.2,2.9,16,0.00,,,0.00,meteobridge,2013-05-29 00:29:00,
2013-05-29 03:34:00,72.7,23.9,29.59,SSE,158,0.0,1.6,16,0.00,,,0.00,meteobridge,2013-05-29 00:34:00,
2013-05-29 03:39:00,72.5,23.9,29.56,NNW,338,1.6,3.1,16,0.00,,,0.00,meteobridge,2013-05-29 00:39:00,
2013-05-29 03:44:00,72.3,23.7,29.56,WSW,248,2.0,3.1,16,0.00,,,0.00,meteobridge,2013-05-29 00:44:00,
2013-05-29 03:49:00,72.1,23.5,29.56,SSE,158,1.3,2.7,16,0.00,,,0.00,meteobridge,2013-05-29 00:49:00,
2013-05-29 03:54:00,72.1,23.5,29.53,South,180,2.9,3.1,16,0.00,,,0.00,meteobridge,2013-05-29 00:54:00,
2013-05-29 03:59:00,72.0,23.4,29.53,NNW,338,2.0,3.8,16,0.00,,,0.00,meteobridge,2013-05-29 00:59:00,
2013-05-29 04:04:00,72.0,23.4,29.53,East,90,2.0,2.0,16,0.00,,,0.00,meteobridge,2013-05-29 01:04:00,
2013-05-29 04:09:00,72.0,23.4,29.56,NW,315,2.0,2.9,16,0.00,,,0.00,meteobridge,2013-05-29 01:09:00,
2013-05-29 04:14:00,72.0,23.4,29.56,WNW,292,2.0,3.4,16,0.00,,,0.00,meteobridge,2013-05-29 01:14:00,
2013-05-29 04:19:00,72.0,23.4,29.56,SSW,202,1.1,2.9,16,0.00,,,0.00,meteobridge,2013-05-29 01:19:00,
2013-05-29 04:24:00,72.0,23.4,29.53,NNE,22,1.1,3.6,16,0.00,,,0.00,meteobridge,2013-05-29 01:24:00,
2013-05-29 04:29:00,72.0,23.4,29.53,NNW,338,0.9,1.1,16,0.00,,,0.00,meteobridge,2013-05-29 01:29:00,
2013-05-29 04:34:00,71.8,23.2,29.53,WSW,248,3.1,3.1,16,0.00,,,0.00,meteobridge,2013-05-29 01:34:00,
2013-05-29 04:39:00,72.0,23.4,29.56,North,0,1.3,2.2,16,0.00,,,0.00,meteobridge,2013-05-29 01:39:00,
2013-05-29 04:44:00,72.0,23.4,29.56,North,0,7.6,7.6,16,0.00,,,0.00,meteobridge,2013-05-29 01:44:00,
2013-05-29 04:50:00,72.1,23.5,29.56,NNE,22,2.9,2.9,16,0.00,,,0.00,meteobridge,2013-05-29 01:50:00,
2013-05-29 04:55:00,72.1,23.5,29.53,NE,45,2.5,4.5,16,0.00,,,0.00,meteobridge,2013-05-29 01:55:00,
2013-05-29 05:00:00,72.3,23.7,29.53,North,0,3.1,7.2,16,0.00,,,0.00,meteobridge,2013-05-29 02:00:00,
2013-05-29 05:05:00,72.5,23.9,29.53,NNE,22,6.0,7.4,16,0.00,,,0.00,meteobridge,2013-05-29 02:05:00,
2013-05-29 05:10:00,72.5,23.9,29.53,NNE,22,3.8,6.5,16,0.00,,,0.00,meteobridge,2013-05-29 02:10:00,
2013-05-29 05:16:00,72.5,23.9,29.53,NNE,22,7.6,7.6,16,0.00,,,0.00,meteobridge,2013-05-29 02:16:00,
2013-05-29 05:21:00,72.1,23.5,29.53,North,0,3.1,7.6,16,0.00,,,0.00,meteobridge,2013-05-29 02:21:00,
2013-05-29 05:27:00,72.1,23.5,29.53,NNW,338,3.1,5.4,16,0.00,,,0.00,meteobridge,2013-05-29 02:27:00,
2013-05-29 05:32:00,72.1,23.5,29.53,NNW,338,5.4,5.4,16,0.00,,,0.00,meteobridge,2013-05-29 02:32:00,
2013-05-29 05:37:00,72.0,23.4,29.50,North,0,3.4,4.0,16,0.00,,,0.00,meteobridge,2013-05-29 02:37:00,
2013-05-29 05:42:00,71.8,27.3,29.50,North,0,3.4,6.0,19,0.00,,,0.00,meteobridge,2013-05-29 02:42:00,
2013-05-29 05:47:00,71.8,27.3,29.50,NNE,22,2.7,4.9,19,0.00,,,0.00,meteobridge,2013-05-29 02:47:00,
2013-05-29 05:52:00,71.6,27.1,29.50,NNW,338,2.0,2.9,19,0.00,,,0.00,meteobridge,2013-05-29 02:52:00,
2013-05-29 05:57:00,71.6,27.1,29.50,NNW,338,2.9,4.3,19,0.00,,,0.00,meteobridge,2013-05-29 02:57:00,
2013-05-29 06:02:00,71.6,27.1,29.50,NE,45,1.6,2.2,19,0.00,,,0.00,meteobridge,2013-05-29 03:02:00,
2013-05-29 06:07:00,71.4,27.1,29.53,North,0,2.9,2.9,19,0.00,,,0.00,meteobridge,2013-05-29 03:07:00,
2013-05-29 06:12:00,71.4,27.1,29.53,NNE,22,2.5,2.5,19,0.00,,,0.00,meteobridge,2013-05-29 03:12:00,
2013-05-29 06:17:00,71.2,27.0,29.53,North,0,2.2,2.5,19,0.00,,,0.00,meteobridge,2013-05-29 03:17:00,
2013-05-29 06:22:00,71.4,27.1,29.53,North,0,3.1,3.8,19,0.00,,,0.00,meteobridge,2013-05-29 03:22:00,
2013-05-29 06:27:00,71.6,27.1,29.53,North,0,1.3,2.9,19,0.00,,,0.00,meteobridge,2013-05-29 03:27:00,
2013-05-29 06:32:00,71.6,27.1,29.53,North,0,3.1,3.6,19,0.00,,,0.00,meteobridge,2013-05-29 03:32:00,
2013-05-29 06:37:00,71.6,27.1,29.53,NNE,22,4.0,6.5,19,0.00,,,0.00,meteobridge,2013-05-29 03:37:00,
2013-05-29 06:42:00,71.8,27.3,29.53,North,0,2.9,3.4,19,0.00,,,0.00,meteobridge,2013-05-29 03:42:00,
2013-05-29 06:47:00,72.0,27.5,29.53,North,0,1.3,3.4,19,0.00,,,0.00,meteobridge,2013-05-29 03:47:00,
2013-05-29 06:53:00,72.3,27.9,29.53,North,0,3.8,4.3,19,0.00,,,0.00,meteobridge,2013-05-29 03:53:00,
2013-05-29 06:58:00,72.5,28.0,29.53,NNW,338,4.3,5.4,19,0.00,,,0.00,meteobridge,2013-05-29 03:58:00,
2013-05-29 07:01:00,72.7,28.0,29.53,NNE,22,2.7,7.2,19,0.00,,,0.00,meteobridge,2013-05-29 04:01:00,
2013-05-29 07:02:00,72.9,28.2,29.53,North,0,2.0,3.8,19,0.00,,,0.00,meteobridge,2013-05-29 04:02:00,
2013-05-29 07:03:00,73.0,28.4,29.53,NNW,338,2.9,3.8,19,0.00,,,0.00,meteobridge,2013-05-29 04:03:00,
2013-05-29 07:08:00,73.2,28.6,29.50,WNW,292,2.2,5.6,19,0.00,,,0.00,meteobridge,2013-05-29 04:08:00,
2013-05-29 07:13:00,73.8,27.7,29.50,NNW,338,3.6,5.4,18,0.00,,,0.00,meteobridge,2013-05-29 04:13:00,
2013-05-29 07:18:00,74.3,28.0,29.50,NNW,338,2.7,4.3,18,0.00,,,0.00,meteobridge,2013-05-29 04:18:00,
2013-05-29 07:23:00,74.7,28.4,29.53,North,0,2.9,4.0,18,0.00,,,0.00,meteobridge,2013-05-29 04:23:00,
2013-05-29 07:28:00,75.2,28.8,29.53,NNW,338,4.0,4.7,18,0.00,,,0.00,meteobridge,2013-05-29 04:28:00,
2013-05-29 07:33:00,75.2,28.8,29.53,North,0,3.6,6.5,18,0.00,,,0.00,meteobridge,2013-05-29 04:33:00,
2013-05-29 07:38:00,75.6,29.1,29.53,NNW,338,2.7,4.0,18,0.00,,,0.00,meteobridge,2013-05-29 04:38:00,
2013-05-29 07:43:00,75.6,29.1,29.53,North,0,6.3,8.1,18,0.00,,,0.00,meteobridge,2013-05-29 04:43:00,
2013-05-29 07:48:00,75.6,31.6,29.53,North,0,4.3,9.8,20,0.00,,,0.00,meteobridge,2013-05-29 04:48:00,
2013-05-29 07:53:00,75.4,31.6,29.53,North,0,8.9,13.0,20,0.00,,,0.00,meteobridge,2013-05-29 04:53:00,
2013-05-29 07:58:00,75.4,31.6,29.53,NNE,22,5.6,17.0,20,0.00,,,0.00,meteobridge,2013-05-29 04:58:00,
2013-05-29 08:03:00,75.7,31.8,29.53,North,0,13.9,13.9,20,0.00,,,0.00,meteobridge,2013-05-29 05:03:00,
2013-05-29 08:09:00,76.5,32.5,29.50,NNW,338,3.6,6.0,20,0.00,,,0.00,meteobridge,2013-05-29 05:09:00,
2013-05-29 08:14:00,76.8,32.7,29.50,NNE,22,3.6,8.5,20,0.00,,,0.00,meteobridge,2013-05-29 05:14:00,
2013-05-29 08:19:00,77.4,33.3,29.50,NNE,22,4.0,6.0,20,0.00,,,0.00,meteobridge,2013-05-29 05:19:00,
2013-05-29 08:24:00,77.9,33.6,29.50,NNE,22,4.0,7.2,20,0.00,,,0.00,meteobridge,2013-05-29 05:24:00,
2013-05-29 08:29:00,78.3,34.0,29.50,North,0,6.0,6.0,20,0.00,,,0.00,meteobridge,2013-05-29 05:29:00,
2013-05-29 08:34:00,78.1,31.1,29.50,North,0,6.5,7.4,18,0.00,,,0.00,meteobridge,2013-05-29 05:34:00,
2013-05-29 08:39:00,79.0,30.6,29.50,NNW,338,3.1,5.4,17,0.00,,,0.00,meteobridge,2013-05-29 05:39:00,
2013-05-29 08:44:00,79.7,31.1,29.50,NNE,22,3.1,4.3,17,0.00,,,0.00,meteobridge,2013-05-29 05:44:00,
2013-05-29 08:49:00,80.8,32.0,29.50,NNW,338,1.6,4.7,17,0.00,,,0.00,meteobridge,2013-05-29 05:49:00,
2013-05-29 08:54:00,81.3,32.4,29.50,NNE,22,2.7,6.3,17,0.00,,,0.00,meteobridge,2013-05-29 05:54:00,
2013-05-29 08:59:00,82.2,33.1,29.50,SSE,158,2.5,3.1,17,0.00,,,0.00,meteobridge,2013-05-29 05:59:00,
2013-05-29 09:04:00,82.8,32.0,29.50,North,0,2.7,6.3,16,0.00,,,0.00,meteobridge,2013-05-29 06:04:00,
2013-05-29 09:09:00,83.5,32.5,29.47,NW,315,2.0,2.7,16,0.00,,,0.00,meteobridge,2013-05-29 06:09:00,
2013-05-29 09:14:00,84.4,33.3,29.47,NNE,22,2.0,3.4,16,0.00,,,0.00,meteobridge,2013-05-29 06:14:00,
2013-05-29 09:20:00,84.0,33.1,29.47,North,0,3.8,4.0,16,0.00,,,0.00,meteobridge,2013-05-29 06:20:00,
2013-05-29 09:25:00,84.2,33.3,29.47,North,0,3.4,3.6,16,0.00,,,0.00,meteobridge,2013-05-29 06:25:00,
2013-05-29 09:30:00,84.6,33.4,29.47,NNW,338,6.5,6.5,16,0.00,,,0.00,meteobridge,2013-05-29 06:30:00,
2013-05-29 09:35:00,84.6,33.4,29.47,North,0,2.2,3.1,16,0.00,,,0.00,meteobridge,2013-05-29 06:35:00,
2013-05-29 09:40:00,84.2,33.3,29.47,North,0,5.4,6.5,16,0.00,,,0.00,meteobridge,2013-05-29 06:40:00,
2013-05-29 09:45:00,84.2,33.3,29.47,NE,45,5.4,6.3,16,0.00,,,0.00,meteobridge,2013-05-29 06:45:00,
2013-05-29 09:50:00,84.2,33.3,29.47,East,90,5.6,6.0,16,0.00,,,0.00,meteobridge,2013-05-29 06:50:00,
2013-05-29 09:55:00,85.3,34.0,29.50,North,0,2.9,4.3,16,0.00,,,0.00,meteobridge,2013-05-29 06:55:00,
2013-05-29 10:00:00,84.6,33.4,29.50,North,0,2.7,5.8,16,0.00,,,0.00,meteobridge,2013-05-29 07:00:00,
2013-05-29 10:05:00,84.9,33.8,29.50,North,0,4.3,5.4,16,0.00,,,0.00,meteobridge,2013-05-29 07:05:00,
2013-05-29 10:10:00,84.9,33.8,29.47,WSW,248,1.3,6.3,16,0.00,,,0.00,meteobridge,2013-05-29 07:10:00,
2013-05-29 10:15:00,86.5,35.1,29.47,NE,45,1.3,2.7,16,0.00,,,0.00,meteobridge,2013-05-29 07:15:00,
2013-05-29 10:20:00,86.9,35.4,29.47,NNE,22,1.6,4.0,16,0.00,,,0.00,meteobridge,2013-05-29 07:20:00,
2013-05-29 10:25:00,87.3,30.6,29.47,NNE,22,0.9,4.9,13,0.00,,,0.00,meteobridge,2013-05-29 07:25:00,
2013-05-29 10:30:00,86.7,35.2,29.47,North,0,1.6,8.1,16,0.00,,,0.00,meteobridge,2013-05-29 07:30:00,
2013-05-29 10:36:00,86.7,35.2,29.47,NNE,22,2.9,5.4,16,0.00,,,0.00,meteobridge,2013-05-29 07:36:00,
2013-05-29 10:41:00,86.4,34.9,29.47,NNE,22,5.6,5.6,16,0.00,,,0.00,meteobridge,2013-05-29 07:41:00,
2013-05-29 10:46:00,86.7,35.2,29.47,ENE,68,7.2,7.2,16,0.00,,,0.00,meteobridge,2013-05-29 07:46:00,
2013-05-29 10:51:00,87.4,35.8,29.47,ESE,112,4.9,4.9,16,0.00,,,0.00,meteobridge,2013-05-29 07:51:00,
2013-05-29 10:56:00,87.4,35.8,29.47,SSE,158,2.0,2.2,16,0.00,,,0.00,meteobridge,2013-05-29 07:56:00,
2013-05-29 11:01:00,86.4,34.9,29.47,NE,45,6.0,6.0,16,0.00,,,0.00,meteobridge,2013-05-29 08:01:00,
2013-05-29 11:06:00,86.7,35.2,29.47,SE,135,5.8,6.5,16,0.00,,,0.00,meteobridge,2013-05-29 08:06:00,
2013-05-29 11:11:00,87.6,36.0,29.47,NW,315,3.6,4.0,16,0.00,,,0.00,meteobridge,2013-05-29 08:11:00,
2013-05-29 11:16:00,86.2,34.7,29.47,North,0,4.9,5.8,16,0.00,,,0.00,meteobridge,2013-05-29 08:16:00,
2013-05-29 11:21:00,87.3,35.6,29.47,NNE,22,2.9,6.0,16,0.00,,,0.00,meteobridge,2013-05-29 08:21:00,
2013-05-29 11:26:00,87.4,35.8,29.47,ENE,68,3.1,5.6,16,0.00,,,0.00,meteobridge,2013-05-29 08:26:00,
2013-05-29 11:31:00,88.9,35.2,29.47,North,0,2.7,4.0,15,0.00,,,0.00,meteobridge,2013-05-29 08:31:00,
2013-05-29 11:36:00,88.7,31.6,29.47,SE,135,2.7,2.9,13,0.00,,,0.00,meteobridge,2013-05-29 08:36:00,
2013-05-29 11:42:00,88.2,31.1,29.47,NE,45,3.1,6.0,13,0.00,,,0.00,meteobridge,2013-05-29 08:42:00,
2013-05-29 11:47:00,88.7,35.2,29.47,North,0,6.3,6.3,15,0.00,,,0.00,meteobridge,2013-05-29 08:47:00,
2013-05-29 11:53:00,88.3,34.9,29.47,NNE,22,5.4,6.3,15,0.00,,,0.00,meteobridge,2013-05-29 08:53:00,
2013-05-29 11:58:00,86.4,34.9,29.47,NNE,22,4.0,10.1,16,0.00,,,0.00,meteobridge,2013-05-29 08:58:00,
2013-05-29 12:03:00,87.4,35.8,29.47,North,0,3.8,5.8,16,0.00,,,0.00,meteobridge,2013-05-29 09:03:00,
2013-05-29 12:08:00,88.3,34.9,29.47,NNE,22,4.0,4.3,15,0.00,,,0.00,meteobridge,2013-05-29 09:08:00,
2013-05-29 12:13:00,87.1,35.4,29.47,North,0,7.2,7.2,16,0.00,,,0.00,meteobridge,2013-05-29 09:13:00,
2013-05-29 12:18:00,88.5,35.1,29.47,North,0,3.1,3.1,15,0.00,,,0.00,meteobridge,2013-05-29 09:18:00,
2013-05-29 12:23:00,88.2,34.7,29.47,North,0,5.4,9.6,15,0.00,,,0.00,meteobridge,2013-05-29 09:23:00,
2013-05-29 12:28:00,87.8,34.5,29.47,North,0,6.0,6.0,15,0.00,,,0.00,meteobridge,2013-05-29 09:28:00,
2013-05-29 12:34:00,88.5,35.1,29.47,North,0,3.8,5.8,15,0.00,,,0.00,meteobridge,2013-05-29 09:34:00,
2013-05-29 12:39:00,89.8,36.0,29.50,ESE,112,1.6,2.5,15,0.00,,,0.00,meteobridge,2013-05-29 09:39:00,
2013-05-29 12:44:00,90.1,36.3,29.50,ESE,112,1.6,5.4,15,0.00,,,0.00,meteobridge,2013-05-29 09:44:00,
2013-05-29 12:49:00,90.5,36.5,29.50,NNW,338,5.4,5.4,15,0.00,,,0.00,meteobridge,2013-05-29 09:49:00,
2013-05-29 12:54:00,89.8,36.0,29.50,North,0,3.6,4.3,15,0.00,,,0.00,meteobridge,2013-05-29 09:54:00,
2013-05-29 12:59:00,90.0,36.1,29.50,West,270,2.5,3.4,15,0.00,,,0.00,meteobridge,2013-05-29 09:59:00,
2013-05-29 13:04:00,91.0,37.0,29.50,North,0,3.8,3.8,15,0.00,,,0.00,meteobridge,2013-05-29 10:04:00,
2013-05-29 13:09:00,91.2,37.2,29.50,WNW,292,1.6,4.7,15,0.00,,,0.00,meteobridge,2013-05-29 10:09:00,
2013-05-29 13:14:00,90.5,31.1,29.50,NNE,22,4.7,6.5,12,0.00,,,0.00,meteobridge,2013-05-29 10:14:00,
2013-05-29 13:19:00,90.7,31.1,29.50,NNE,22,1.6,4.7,12,0.00,,,0.00,meteobridge,2013-05-29 10:19:00,
2013-05-29 13:24:00,91.9,36.0,29.50,SSW,202,2.0,2.9,14,0.00,,,0.00,meteobridge,2013-05-29 10:24:00,
2013-05-29 13:30:00,92.5,32.5,29.50,West,270,3.4,3.6,12,0.00,,,0.00,meteobridge,2013-05-29 10:30:00,
2013-05-29 13:35:00,92.8,32.9,29.50,North,0,2.9,6.5,12,0.00,,,0.00,meteobridge,2013-05-29 10:35:00,
2013-05-29 13:40:00,91.9,32.2,29.50,NNE,22,2.9,4.5,12,0.00,,,0.00,meteobridge,2013-05-29 10:40:00,
2013-05-29 13:45:00,93.0,32.9,29.50,North,0,1.1,2.2,12,0.00,,,0.00,meteobridge,2013-05-29 10:45:00,
2013-05-29 13:50:00,92.3,32.4,29.50,East,90,2.5,3.1,12,0.00,,,0.00,meteobridge,2013-05-29 10:50:00,
2013-05-29 13:55:00,92.8,32.9,29.50,NNE,22,2.0,2.9,12,0.00,,,0.00,meteobridge,2013-05-29 10:55:00,
2013-05-29 14:00:00,92.7,32.7,29.50,ESE,112,2.9,5.4,12,0.00,,,0.00,meteobridge,2013-05-29 11:00:00,
2013-05-29 14:05:00,92.1,32.2,29.50,NW,315,1.6,5.4,12,0.00,,,0.00,meteobridge,2013-05-29 11:05:00,
2013-05-29 14:10:00,91.4,31.6,29.47,West,270,6.3,6.3,12,0.00,,,0.00,meteobridge,2013-05-29 11:10:00,
2013-05-29 14:15:00,91.2,31.6,29.47,NW,315,2.9,5.4,12,0.00,,,0.00,meteobridge,2013-05-29 11:15:00,
2013-05-29 14:20:00,92.5,32.5,29.47,NW,315,2.2,2.9,12,0.00,,,0.00,meteobridge,2013-05-29 11:20:00,
2013-05-29 14:25:00,91.9,32.2,29.47,SSE,158,2.7,4.9,12,0.00,,,0.00,meteobridge,2013-05-29 11:25:00,
2013-05-29 14:30:00,91.6,31.8,29.47,South,180,2.9,2.9,12,0.00,,,0.00,meteobridge,2013-05-29 11:30:00,
2013-05-29 14:35:00,92.3,32.4,29.47,ESE,112,2.5,3.4,12,0.00,,,0.00,meteobridge,2013-05-29 11:35:00,
2013-05-29 14:40:00,92.1,32.2,29.47,West,270,2.5,2.5,12,0.00,,,0.00,meteobridge,2013-05-29 11:40:00,
2013-05-29 14:45:00,91.8,32.0,29.47,NNW,338,2.7,4.9,12,0.00,,,0.00,meteobridge,2013-05-29 11:45:00,
2013-05-29 14:50:00,91.0,31.5,29.47,SSE,158,4.7,5.8,12,0.00,,,0.00,meteobridge,2013-05-29 11:50:00,
2013-05-29 14:55:00,91.4,31.6,29.50,NNE,22,2.7,2.7,12,0.00,,,0.00,meteobridge,2013-05-29 11:55:00,
2013-05-29 15:00:00,90.5,31.1,29.50,SSW,202,2.5,4.7,12,0.00,,,0.00,meteobridge,2013-05-29 12:00:00,
2013-05-29 15:05:00,91.4,35.6,29.50,East,90,2.0,2.7,14,0.00,,,0.00,meteobridge,2013-05-29 12:05:00,
2013-05-29 15:10:00,91.6,31.8,29.50,South,180,3.1,3.1,12,0.00,,,0.00,meteobridge,2013-05-29 12:10:00,
2013-05-29 15:15:00,90.7,31.1,29.50,NNW,338,1.3,3.6,12,0.00,,,0.00,meteobridge,2013-05-29 12:15:00,
2013-05-29 15:20:00,90.5,31.1,29.50,NW,315,1.3,6.0,12,0.00,,,0.00,meteobridge,2013-05-29 12:20:00,
2013-05-29 15:25:00,90.5,31.1,29.50,ENE,68,3.4,6.3,12,0.00,,,0.00,meteobridge,2013-05-29 12:25:00,
2013-05-29 15:32:00,90.3,30.9,29.50,East,90,1.3,-999.0,12,0.00,,,0.00,meteobridge,2013-05-29 12:32:00,
2013-05-29 15:37:00,90.5,31.1,29.47,South,180,3.8,6.5,12,0.00,,,0.00,meteobridge,2013-05-29 12:37:00,
2013-05-29 15:42:00,90.7,31.1,29.47,East,90,2.7,3.4,12,0.00,,,0.00,meteobridge,2013-05-29 12:42:00,
2013-05-29 15:47:00,91.2,37.2,29.47,ESE,112,2.0,4.0,15,0.00,,,0.00,meteobridge,2013-05-29 12:47:00,
2013-05-29 15:52:00,91.2,31.6,29.47,East,90,2.5,6.3,12,0.00,,,0.00,meteobridge,2013-05-29 12:52:00,
2013-05-29 15:58:00,91.6,31.8,29.47,NW,315,2.9,4.3,12,0.00,,,0.00,meteobridge,2013-05-29 12:58:00,
2013-05-29 16:03:00,91.8,32.0,29.47,SE,135,4.3,4.3,12,0.00,,,0.00,meteobridge,2013-05-29 13:03:00,
2013-05-29 16:08:00,92.1,32.2,29.47,ENE,68,2.5,3.1,12,0.00,,,0.00,meteobridge,2013-05-29 13:08:00,
2013-05-29 16:13:00,91.4,31.6,29.47,West,270,4.7,4.7,12,0.00,,,0.00,meteobridge,2013-05-29 13:13:00,
2013-05-29 16:18:00,92.3,32.4,29.47,WNW,292,2.9,2.9,12,0.00,,,0.00,meteobridge,2013-05-29 13:18:00,
2013-05-29 16:23:00,92.1,32.2,29.47,SSE,158,4.5,4.7,12,0.00,,,0.00,meteobridge,2013-05-29 13:23:00,
2013-05-29 16:28:00,91.8,35.8,29.47,NNW,338,2.0,4.0,14,0.00,,,0.00,meteobridge,2013-05-29 13:28:00,
2013-05-29 16:33:00,90.7,36.7,29.47,WSW,248,2.7,4.3,15,0.00,,,0.00,meteobridge,2013-05-29 13:33:00,
2013-05-29 16:38:00,90.9,36.9,29.47,WNW,292,2.9,6.0,15,0.00,,,0.00,meteobridge,2013-05-29 13:38:00,
2013-05-29 16:43:00,90.1,36.3,29.47,SSE,158,2.9,6.9,15,0.00,,,0.00,meteobridge,2013-05-29 13:43:00,
2013-05-29 16:48:00,90.0,36.1,29.47,North,0,1.1,1.3,15,0.00,,,0.00,meteobridge,2013-05-29 13:48:00,
2013-05-29 16:53:00,89.8,36.0,29.47,NNW,338,1.6,6.0,15,0.00,,,0.00,meteobridge,2013-05-29 13:53:00,
2013-05-29 16:58:00,89.8,39.2,29.47,ENE,68,2.0,2.7,17,0.00,,,0.00,meteobridge,2013-05-29 13:58:00,
2013-05-29 17:04:00,90.0,36.1,29.47,SE,135,4.3,4.3,15,0.00,,,0.00,meteobridge,2013-05-29 14:04:00,
2013-05-29 17:09:00,89.2,40.3,29.47,WSW,248,2.9,4.0,18,0.00,,,0.00,meteobridge,2013-05-29 14:09:00,
2013-05-29 17:14:00,88.0,39.2,29.47,ESE,112,4.0,4.9,18,0.00,,,0.00,meteobridge,2013-05-29 14:14:00,
2013-05-29 17:19:00,86.7,38.1,29.47,SSE,158,5.4,7.6,18,0.00,,,0.00,meteobridge,2013-05-29 14:19:00,
2013-05-29 17:24:00,86.9,38.3,29.50,ESE,112,3.8,4.7,18,0.00,,,0.00,meteobridge,2013-05-29 14:24:00,
2013-05-29 17:29:00,87.1,38.5,29.50,West,270,2.0,3.8,18,0.00,,,0.00,meteobridge,2013-05-29 14:29:00,
2013-05-29 17:34:00,86.9,38.3,29.50,East,90,1.1,3.6,18,0.00,,,0.00,meteobridge,2013-05-29 14:34:00,
2013-05-29 17:39:00,86.7,38.1,29.47,SE,135,3.8,4.9,18,0.00,,,0.00,meteobridge,2013-05-29 14:39:00,
2013-05-29 17:44:00,86.7,38.1,29.47,SE,135,1.6,2.7,18,0.00,,,0.00,meteobridge,2013-05-29 14:44:00,
2013-05-29 17:49:00,86.4,37.9,29.47,North,0,1.3,1.6,18,0.00,,,0.00,meteobridge,2013-05-29 14:49:00,
2013-05-29 17:54:00,86.9,38.3,29.47,WSW,248,3.1,3.6,18,0.00,,,0.00,meteobridge,2013-05-29 14:54:00,
2013-05-29 17:59:00,86.9,38.3,29.47,North,0,2.2,3.4,18,0.00,,,0.00,meteobridge,2013-05-29 14:59:00,
2013-05-29 18:04:00,86.5,38.1,29.47,West,270,2.0,3.6,18,0.00,,,0.00,meteobridge,2013-05-29 15:04:00,
2013-05-29 18:09:00,86.4,37.9,29.47,East,90,2.2,2.9,18,0.00,,,0.00,meteobridge,2013-05-29 15:09:00,
2013-05-29 18:14:00,85.8,37.4,29.47,SSE,158,2.2,2.9,18,0.00,,,0.00,meteobridge,2013-05-29 15:14:00,
2013-05-29 18:19:00,85.5,37.2,29.47,SSE,158,2.7,3.4,18,0.00,,,0.00,meteobridge,2013-05-29 15:19:00,
2013-05-29 18:24:00,85.1,38.3,29.47,SSE,158,3.6,3.6,19,0.00,,,0.00,meteobridge,2013-05-29 15:24:00,
2013-05-29 18:29:00,84.6,37.8,29.47,NNE,22,1.6,2.5,19,0.00,,,0.00,meteobridge,2013-05-29 15:29:00,
2013-05-29 18:35:00,84.2,37.6,29.47,NW,315,2.2,2.5,19,0.00,,,0.00,meteobridge,2013-05-29 15:35:00,
2013-05-29 18:40:00,83.5,38.3,29.47,NNW,338,2.7,3.4,20,0.00,,,0.00,meteobridge,2013-05-29 15:40:00,
2013-05-29 18:45:00,82.8,37.6,29.47,North,0,3.6,3.6,20,0.00,,,0.00,meteobridge,2013-05-29 15:45:00,
2013-05-29 18:50:00,82.2,39.6,29.47,North,0,2.7,2.7,22,0.00,,,0.00,meteobridge,2013-05-29 15:50:00,
2013-05-29 18:55:00,82.0,39.6,29.47,NNW,338,3.4,3.4,22,0.00,,,0.00,meteobridge,2013-05-29 15:55:00,
2013-05-29 19:01:00,81.5,40.1,29.47,North,0,1.3,1.3,23,0.00,,,0.00,meteobridge,2013-05-29 16:01:00,
2013-05-29 19:06:00,81.3,38.8,29.47,NE,45,1.6,3.6,22,0.00,,,0.00,meteobridge,2013-05-29 16:06:00,
2013-05-29 19:11:00,81.1,38.7,29.47,NW,315,1.3,3.8,22,0.00,,,0.00,meteobridge,2013-05-29 16:11:00,
2013-05-29 19:16:00,80.6,39.4,29.47,North,0,3.1,4.3,23,0.00,,,0.00,meteobridge,2013-05-29 16:16:00,
2013-05-29 19:21:00,80.1,40.1,29.47,NNE,22,1.3,3.6,24,0.00,,,0.00,meteobridge,2013-05-29 16:21:00,
2013-05-29 19:26:00,79.7,40.8,29.50,NNE,22,1.1,2.5,25,0.00,,,0.00,meteobridge,2013-05-29 16:26:00,
2013-05-29 19:31:00,79.7,40.8,29.50,NW,315,2.5,3.6,25,0.00,,,0.00,meteobridge,2013-05-29 16:31:00,
2013-05-29 19:36:00,79.3,40.5,29.50,SSE,158,2.5,3.1,25,0.00,,,0.00,meteobridge,2013-05-29 16:36:00,
2013-05-29 19:41:00,79.2,40.3,29.50,NW,315,2.5,2.5,25,0.00,,,0.00,meteobridge,2013-05-29 16:41:00,
2013-05-29 19:46:00,78.8,40.1,29.50,WSW,248,2.0,4.3,25,0.00,,,0.00,meteobridge,2013-05-29 16:46:00,
2013-05-29 19:51:00,78.4,40.8,29.53,NW,315,2.0,5.6,26,0.00,,,0.00,meteobridge,2013-05-29 16:51:00,
2013-05-29 19:57:00,78.3,40.6,29.53,NNW,338,1.3,2.9,26,0.00,,,0.00,meteobridge,2013-05-29 16:57:00,
2013-05-29 20:02:00,78.1,40.5,29.53,NNW,338,1.1,2.5,26,0.00,,,0.00,meteobridge,2013-05-29 17:02:00,
2013-05-29 20:07:00,77.7,40.1,29.53,West,270,1.3,3.4,26,0.00,,,0.00,meteobridge,2013-05-29 17:07:00,
2013-05-29 20:12:00,77.5,39.9,29.53,North,0,2.5,3.1,26,0.00,,,0.00,meteobridge,2013-05-29 17:12:00,
2013-05-29 20:17:00,77.4,38.8,29.53,NW,315,2.5,2.5,25,0.00,,,0.00,meteobridge,2013-05-29 17:17:00,
2013-05-29 20:22:00,77.2,38.7,29.53,WNW,292,0.9,2.0,25,0.00,,,0.00,meteobridge,2013-05-29 17:22:00,
2013-05-29 20:27:00,77.0,39.6,29.53,NW,315,1.6,3.4,26,0.00,,,0.00,meteobridge,2013-05-29 17:27:00,
2013-05-29 20:32:00,76.6,39.2,29.53,NNW,338,2.7,2.7,26,0.00,,,0.00,meteobridge,2013-05-29 17:32:00,
2013-05-29 20:37:00,76.3,39.9,29.53,North,0,2.5,2.9,27,0.00,,,0.00,meteobridge,2013-05-29 17:37:00,
2013-05-29 20:42:00,76.1,40.6,29.53,North,0,1.6,3.1,28,0.00,,,0.00,meteobridge,2013-05-29 17:42:00,
2013-05-29 20:47:00,76.1,40.6,29.53,North,0,2.7,2.7,28,0.00,,,0.00,meteobridge,2013-05-29 17:47:00,
2013-05-29 20:52:00,76.1,41.5,29.50,North,0,2.7,2.7,29,0.00,,,0.00,meteobridge,2013-05-29 17:52:00,
2013-05-29 20:57:00,76.1,41.5,29.50,North,0,2.0,2.5,29,0.00,,,0.00,meteobridge,2013-05-29 17:57:00,
2013-05-29 21:02:00,76.1,41.5,29.50,NNE,22,2.0,2.9,29,0.00,,,0.00,meteobridge,2013-05-29 18:02:00,
2013-05-29 21:07:00,75.9,41.4,29.53,North,0,0.9,2.0,29,0.00,,,0.00,meteobridge,2013-05-29 18:07:00,
2013-05-29 21:12:00,75.9,42.3,29.53,NNE,22,1.1,2.7,30,0.00,,,0.00,meteobridge,2013-05-29 18:12:00,
2013-05-29 21:17:00,75.9,42.3,29.53,North,0,1.3,2.2,30,0.00,,,0.00,meteobridge,2013-05-29 18:17:00,
2013-05-29 21:22:00,75.9,42.3,29.53,North,0,2.2,2.7,30,0.00,,,0.00,meteobridge,2013-05-29 18:22:00,
2013-05-29 21:27:00,75.9,42.3,29.53,North,0,1.6,2.5,30,0.00,,,0.00,meteobridge,2013-05-29 18:27:00,
2013-05-29 21:32:00,75.7,42.1,29.53,North,0,2.0,2.7,30,0.00,,,0.00,meteobridge,2013-05-29 18:32:00,
2013-05-29 21:37:00,75.7,42.1,29.53,NNW,338,1.1,2.0,30,0.00,,,0.00,meteobridge,2013-05-29 18:37:00,
2013-05-29 21:42:00,75.7,43.0,29.53,NNW,338,0.0,1.1,31,0.00,,,0.00,meteobridge,2013-05-29 18:42:00,
2013-05-29 21:47:00,75.7,43.0,29.53,NNW,338,2.0,2.2,31,0.00,,,0.00,meteobridge,2013-05-29 18:47:00,
2013-05-29 21:52:00,75.7,43.0,29.53,North,0,1.1,2.0,31,0.00,,,0.00,meteobridge,2013-05-29 18:52:00,
2013-05-29 21:57:00,75.6,42.8,29.53,North,0,1.1,1.3,31,0.00,,,0.00,meteobridge,2013-05-29 18:57:00,
2013-05-29 22:02:00,75.4,42.6,29.53,NNW,338,2.5,2.5,31,0.00,,,0.00,meteobridge,2013-05-29 19:02:00,
2013-05-29 22:07:00,75.2,42.4,29.53,North,0,0.0,1.6,31,0.00,,,0.00,meteobridge,2013-05-29 19:07:00,
2013-05-29 22:12:00,75.2,42.4,29.53,NNW,338,2.0,2.2,31,0.00,,,0.00,meteobridge,2013-05-29 19:12:00,
2013-05-29 22:17:00,75.2,42.4,29.53,North,0,0.0,0.9,31,0.00,,,0.00,meteobridge,2013-05-29 19:17:00,
2013-05-29 22:22:00,74.8,43.0,29.53,NE,45,0.9,1.3,32,0.00,,,0.00,meteobridge,2013-05-29 19:22:00,
2013-05-29 22:27:00,74.8,43.0,29.53,NNW,338,1.1,1.1,32,0.00,,,0.00,meteobridge,2013-05-29 19:27:00,
2013-05-29 22:32:00,74.8,43.0,29.53,North,0,1.1,1.6,32,0.00,,,0.00,meteobridge,2013-05-29 19:32:00,
2013-05-29 22:38:00,74.8,43.0,29.53,NNE,22,0.0,1.3,32,0.00,,,0.00,meteobridge,2013-05-29 19:38:00,
2013-05-29 22:43:00,74.8,43.0,29.53,North,0,1.1,1.1,32,0.00,,,0.00,meteobridge,2013-05-29 19:43:00,
2013-05-29 22:48:00,74.8,43.0,29.53,North,0,1.1,1.1,32,0.00,,,0.00,meteobridge,2013-05-29 19:48:00,
2013-05-29 22:53:00,74.8,43.0,29.53,North,0,1.6,2.0,32,0.00,,,0.00,meteobridge,2013-05-29 19:53:00,
2013-05-29 22:58:00,74.8,43.0,29.53,North,0,0.0,2.0,32,0.00,,,0.00,meteobridge,2013-05-29 19:58:00,
2013-05-29 23:03:00,74.7,42.8,29.53,North,0,1.1,1.6,32,0.00,,,0.00,meteobridge,2013-05-29 20:03:00,
2013-05-29 23:08:00,74.7,42.8,29.56,ENE,68,1.1,1.1,32,0.00,,,0.00,meteobridge,2013-05-29 20:08:00,
2013-05-29 23:13:00,74.7,42.8,29.56,North,0,1.1,1.1,32,0.00,,,0.00,meteobridge,2013-05-29 20:13:00,
2013-05-29 23:18:00,74.5,42.8,29.56,North,0,0.0,0.0,32,0.00,,,0.00,meteobridge,2013-05-29 20:18:00,
2013-05-29 23:23:00,74.5,42.8,29.56,North,0,0.0,0.9,32,0.00,,,0.00,meteobridge,2013-05-29 20:23:00,
2013-05-29 23:28:00,74.5,41.9,29.56,North,0,1.3,2.5,31,0.00,,,0.00,meteobridge,2013-05-29 20:28:00,
2013-05-29 23:34:00,74.5,41.9,29.56,North,0,0.9,0.9,31,0.00,,,0.00,meteobridge,2013-05-29 20:34:00,
2013-05-29 23:39:00,74.5,41.9,29.56,NNE,22,1.1,1.6,31,0.00,,,0.00,meteobridge,2013-05-29 20:39:00,
2013-05-29 23:44:00,74.5,41.9,29.56,North,0,0.0,2.2,31,0.00,,,0.00,meteobridge,2013-05-29 20:44:00,
2013-05-29 23:49:00,74.3,41.7,29.56,WSW,248,1.6,1.6,31,0.00,,,0.00,meteobridge,2013-05-29 20:49:00,
2013-05-29 23:55:00,74.3,41.7,29.56,SSW,202,2.7,-999.0,31,0.00,,,0.00,meteobridge,2013-05-29 20:55:00,